Weather History for Charleston, WV

Change the Weather History Date:

Sunday, October 27, 2013

  Actual Average Record
Temperature  
Mean Temperature 49 °F 53 °F  
Max Temperature 61 °F 65 °F 89 °F (1919)
Min Temperature 37 °F 42 °F 17 °F (1962)
Degree Days  
Heating Degree Days 16 12  
Month to date heating degree days 230 231  
Since 1 July heating degree days 272 289  
Cooling Degree Days 0 0  
Month to date cooling degree days 39 16  
Year to date cooling degree days 1120 1089  
Moisture  
Dew Point 37 °F    
Average Humidity 70    
Maximum Humidity 100    
Minimum Humidity 39    
Precipitation  
Precipitation 0.00 in 0.09 in 1.19 in (1954)
Month to date precipitation 0.96 2.28  
Year to date precipitation 37.49 36.64  
Snow  
Snow 0.00 in - - ()
Month to date snowfall T  
Since 1 September snowfall T  
Snow Depth 0.00 in    
Sea Level Pressure  
Sea Level Pressure 30.08 in    
Wind  
Wind Speed 3 mph (WSW)    
Max Wind Speed 12 mph    
Max Gust Speed 17 mph    
Visibility 10 miles    
Events      
T = Trace of Precipitation, MM = Missing Value Source: NWS Daily Summary

Daily Weather History Graph

Daily Weather History Graph

Search for Another Location

Airport:

Trip Planner

Search our weather history database for the weather conditions in past years. The results will help you decide how hot, cold, wet, or windy it might be!

Date:

Astronomy

Oct. 27, 2013 Rise Set
Actual Time 7:47 AM EDT 6:32 PM EDT
Civil Twilight 7:20 AM EDT 6:59 PM EDT
Nautical Twilight 6:49 AM EDT 7:30 PM EDT
Astronomical Twilight 6:18 AM EDT 8:01 PM EDT
Moon 12:49 AM EDT (10/27) 2:35 PM EDT (10/27)
Length of Visible Light 11h 38m
Length of Day
10h 44m
Last Quarter, 44% of the Moon is Illuminated
Oct 27
Last Quarter
Nov 3
New
Nov 10
First Quarter
Nov 17
Full
Nov 25
Last Quarter

Hourly Weather History & Observations

Time (EDT) Temp. Windchill Dew Point Humidity Pressure Visibility Wind Dir Wind Speed Gust Speed Precip Events Conditions
12:54 AM 48.0 °F - 30.0 °F 50% 30.06 in 10.0 mi SW 5.8 mph - N/A   Mostly Cloudy
1:54 AM 48.0 °F - 32.0 °F 54% 30.06 in 10.0 mi WSW 8.1 mph - N/A   Overcast
2:54 AM 46.9 °F - 33.1 °F 59% 30.05 in 10.0 mi SW 5.8 mph - N/A   Overcast
3:54 AM 45.0 °F 41.8 °F 35.1 °F 68% 30.04 in 10.0 mi SW 5.8 mph - N/A   Overcast
4:54 AM 42.1 °F - 35.1 °F 76% 30.04 in 10.0 mi Calm Calm - N/A   Scattered Clouds
5:54 AM 39.9 °F - 36.0 °F 86% 30.05 in 10.0 mi Calm Calm - N/A   Clear
6:54 AM 39.0 °F - 35.1 °F 86% 30.08 in 10.0 mi Calm Calm - N/A   Clear
7:54 AM 37.9 °F - 35.1 °F 89% 30.09 in 10.0 mi Calm Calm - N/A   Partly Cloudy
8:54 AM 37.9 °F - 37.0 °F 97% 30.11 in 10.0 mi Calm Calm - N/A   Scattered Clouds
9:54 AM 46.0 °F 43.9 °F 37.9 °F 73% 30.12 in 10.0 mi SW 4.6 mph - N/A   Partly Cloudy
10:54 AM 50.0 °F - 37.9 °F 63% 30.12 in 10.0 mi West 3.5 mph - N/A   Scattered Clouds
11:54 AM 53.1 °F - 39.0 °F 59% 30.12 in 10.0 mi Variable 4.6 mph - N/A   Scattered Clouds
12:54 PM 55.9 °F - 39.0 °F 53% 30.10 in 10.0 mi Variable 3.5 mph - N/A   Scattered Clouds
1:54 PM 57.9 °F - 37.9 °F 47% 30.08 in 10.0 mi West 6.9 mph - N/A   Scattered Clouds
2:54 PM 59.0 °F - 37.0 °F 44% 30.07 in 10.0 mi NW 8.1 mph - N/A   Scattered Clouds
3:54 PM 60.1 °F - 36.0 °F 41% 30.05 in 10.0 mi Variable 5.8 mph - N/A   Scattered Clouds
4:54 PM 60.1 °F - 36.0 °F 41% 30.06 in 10.0 mi Variable 3.5 mph - N/A   Scattered Clouds
5:54 PM 59.0 °F - 37.0 °F 44% 30.05 in 10.0 mi West 4.6 mph - N/A   Partly Cloudy
6:54 PM 54.0 °F - 37.9 °F 55% 30.06 in 10.0 mi Calm Calm - N/A   Partly Cloudy
7:54 PM 48.9 °F - 39.9 °F 71% 30.08 in 10.0 mi Calm Calm - N/A   Clear
8:54 PM 46.0 °F - 41.0 °F 83% 30.09 in 10.0 mi Calm Calm - N/A   Clear
9:54 PM 44.1 °F - 41.0 °F 89% 30.10 in 10.0 mi Calm Calm - N/A   Clear
10:54 PM 42.1 °F - 39.9 °F 92% 30.12 in 10.0 mi Calm Calm - N/A   Clear
11:54 PM 39.9 °F - 39.0 °F 97% 30.12 in 10.0 mi Calm Calm - N/A   Clear